Location: Baumgarten
(49.0970°N, 12.7493°E)
Time: 02:22:22
(UTC+00:00)

IGS 5A - Pass Details

Date: 05 July 2020
Orbit: 582 x 589 km, 97.6° (Epoch: 27 July)

Event Time Altitude Azimuth Distance (km) Brightness Sun altitude
Exits shadow 20:35:35 - 184° (S) 2,179 5.9 -10.0°
Reaches altitude 10° 20:36:15 10° 186° (S) 1,910 5.6 -10.1°
Maximum altitude 20:40:15 47° 261° (W) 781 4.3 -10.5°
Drops below altitude 10° 20:44:18 10° 336° (NNW) 1,922 7.6 -10.9°
Sets 20:46:32 0° 342° (NNW) 2,826 8.6 -11.1°
